Location: Unspecified
(0.0000°N, 0.0000°E)
Time: 01:32:10
(UTC+00:00)

Vanguard 2 Rocket - Pass Details

Date: 24 November 2019
Orbit: 554 x 3326 km, 32.9° (Epoch: 11 December)

Event Time Altitude Azimuth Distance (km) Brightness Sun altitude
Rises 20:32:11 0° 253° (WSW) 5,135 11.7 -38.2°
Reaches altitude 10° 20:36:50 10° 264° (W) 3,616 10.6 -39.2°
Enters shadow 20:42:22 25° 300° (WNW) 2,074 8.9 -40.5°
Maximum altitude 20:43:43 27° 317° (NW) 1,882 - -40.8°
Drops below altitude 10° 20:48:20 10° 15° (NNE) 2,344 - -41.8°
Sets 20:50:42 0° 29° (NNE) 3,055 - -42.3°
